RH
100 100 94 100 100 91 93 78 70 60 54 48 56 57 36 38 30 18 13 13 9 6 6 7 4 5 6 4 4 4 4 4 4 3 3 3 3 3 5 5 5 7 8 10 16 24 21 20 22 25 25 31 37 34
100 99 86 100 100 92 84 61 60 37 42 52 44 49 36 33 22 14 13 14 7 6 7 6 5 6 5 5 5 5 5 4 4 4 4 3 4 4 5 6 6 6 6 10 14 23 24 22 25 25 29 36 50 45
99 100 100 100 99 76 57 57 34 44 40 51 48 38 36 30 22 14 15 12 6 7 7 4 6 7 5 5 6 6 5 4 4 4 4 4 4 4 5 6 6 7 10 12 15 22 24 25 30 27 30 44 46 43
93 100 100 96 86 70 62 39 41 42 42 54 41 35 31 22 20 15 15 10 6 7 8 5 7 6 6 6 7 6 5 5 4 4 4 4 4 4 5 6 5 9 13 17 14 24 27 26 31 28 34 43 36 46
100 100 99 80 68 47 35 40 43 41 49 38 38 36 33 24 16 16 16 10 6 7 8 6 8 7 7 7 7 6 5 4 5 5 5 5 5 5 6 6 7 11 13 17 18 27 27 29 32 38 42 46 42 58
100 100 84 68 48 48 36 40 50 48 48 36 39 38 26 18 16 18 15 10 7 8 8 7 9 7 8 8 8 6 5 6 6 6 5 5 6 6 7 7 8 11 12 15 22 29 30 31 36 50 55 48 63 83
96 84 83 58 40 38 42 47 38 47 39 44 38 39 24 17 18 18 15 8 7 8 7 8 10 8 9 9 9 7 7 8 7 6 6 6 6 7 8 8 9 10 12 17 26 31 36 37 43 55 69 69 92 97
90 75 57 56 32 44 66 51 48 40 40 42 35 28 26 19 19 18 13 8 7 9 7 9 10 9 10 10 10 8 8 10 10 8 8 6 7 9 10 9 10 10 15 22 28 31 34 42 59 72 81 78 97 100
80 54 60 37 40 95 51 48 41 43 50 40 34 28 18 20 19 17 9 8 8 9 7 10 10 10 12 11 12 10 10 13 13 10 10 9 8 11 11 11 12 13 20 26 31 34 47 56 71 88 98 95 100 100
76 46 47 36 83 59 60 37 41 48 48 35 23 17 18 19 19 13 9 8 9 9 8 11 11 12 13 13 13 13 12 13 16 13 11 11 11 12 12 12 14 18 26 30 34 45 46 61 88 91 100 100 100 100
55 48 50 78 68 68 45 41 44 40 47 32 17 18 19 19 16 9 8 8 10 8 10 12 12 12 15 14 16 16 13 15 18 15 13 11 13 13 13 15 16 22 30 31 39 49 44 60 91 93 100 100 99 99
48 66 65 75 78 58 42 43 47 42 31 22 17 18 18 17 11 8 8 8 10 9 12 12 13 14 16 17 19 19 16 17 20 19 15 13 15 15 15 17 20 27 33 33 36 43 47 65 91 99 100 100 100 94
68 63 78 77 72 39 46 53 42 35 23 16 18 18 18 14 9 8 8 9 11 9 12 13 14 15 19 21 20 23 20 17 22 21 20 16 18 19 20 21 23 34 39 35 37 43 48 59 96 100 100 99 100 99
65 55 80 68 49 44 49 48 46 27 17 17 19 19 17 10 9 8 8 9 11 10 13 13 15 16 21 24 24 32 24 23 23 26 21 20 21 23 25 27 34 39 43 36 38 51 50 49 77 99 95 92 98 100
70 72 67 44 44 47 41 45 29 19 16 20 20 20 13 9 9 8 8 10 11 11 13 13 15 17 24 29 31 33 32 28 26 28 25 29 30 26 28 36 36 48 58 61 48 44 53 56 79 96 100 98 94 99
90 67 46 45 44 44 49 31 20 16 20 20 20 17 10 9 9 8 9 10 10 11 13 13 16 18 26 32 35 38 47 40 36 36 36 38 36 34 35 34 41 48 56 71 73 58 57 63 79 95 94 94 98 98
81 45 46 43 41 51 32 21 17 18 20 20 20 15 8 8 8 8 9 11 10 12 14 13 15 18 28 31 35 47 52 48 48 42 36 36 50 43 37 42 44 47 56 67 81 82 53 54 68 80 79 90 94 95
43 40 47 47 48 38 22 18 18 20 20 21 17 9 8 8 8 8 10 11 10 12 14 14 16 16 22 36 39 54 56 57 62 48 44 54 49 49 50 41 43 45 48 57 66 73 79 65 64 77 84 84 84 90
46 48 49 49 34 22 19 18 21 20 21 20 12 8 8 8 8 8 10 12 11 13 15 14 16 18 20 35 47 50 64 65 67 63 63 66 63 67 60 56 49 45 44 46 51 58 65 69 66 63 68 79 86 95
51 48 54 31 22 21 19 21 21 21 20 14 9 8 8 8 8 8 10 12 11 13 15 15 17 19 20 29 49 51 55 68 72 73 70 73 76 72 65 69 71 71 63 51 48 47 48 54 57 60 64 67 68 73
46 58 34 24 24 21 21 21 21 20 16 9 8 7 7 8 8 8 10 13 11 13 15 16 17 19 20 24 36 54 58 64 74 71 72 76 75 75 81 77 70 66 73 79 79 73 62 54 50 49 48 48 49 50
52 38 25 25 22 22 21 21 20 16 10 9 8 7 7 8 8 8 11 13 11 13 15 16 15 19 20 24 29 40 51 54 63 68 69 73 80 80 76 77 78 76 76 73 69 68 72 74 72 67 62 58 54 50
30 26 24 22 22 22 21 20 15 9 8 8 7 7 8 8 8 8 11 13 12 14 15 17 16 17 21 23 28 33 43 52 54 65 71 70 69 69 71 69 69 68 68 70 71 71 69 65 61 57 54 52 51 50
24 23 21 22 22 21 19 12 9 8 8 7 7 7 8 9 8 9 12 13 11 13 15 17 18 16 20 22 25 29 35 43 49 52 56 61 65 65 64 61 58 58 59 61 63 63 61 60 59 58 56 52 49 46
21 20 22 22 20 15 10 8 8 8 7 7 6 7 8 8 8 10 12 13 10 11 15 16 18 20 17 20 25 27 30 35 41 47 49 49 49 48 51 55 57 59 61 64 66 68 68 66 64 63 60 55 48 40
20 21 21 17 11 9 8 8 8 7 7 6 6 7 8 8 8 10 12 12 11 11 14 16 17 20 20 18 20 26 28 30 34 37 39 40 43 46 44 42 43 49 54 58 61 64 66 64 56 46 38 33 31 28
20 17 11 9 9 8 8 8 7 7 6 6 6 7 8 8 8 10 11 12 10 11 14 16 16 18 20 20 19 19 25 28 28 29 30 32 33 34 36 41 47 51 52 52 53 52 46 38 33 33 31 30 26 26
11 8 8 8 8 7 7 7 7 7 6 6 7 8 8 7 9 10 12 11 9 10 13 15 15 16 18 20 20 19 18 21 27 28 27 28 29 33 37 39 38 37 37 39 39 39 38 36 32 29 25 24 26 26
8 8 7 7 7 7 7 6 6 6 6 6 7 7 7 7 9 10 11 10 9 10 12 13 14 15 16 18 18 18 17 16 16 21 26 28 28 28 28 28 29 33 36 37 34 30 26 24 25 26 25 24 24 22
6 6 6 6 6 6 6 6 6 6 7 7 7 8 7 8 9 11 11 10 9 10 12 12 13 13 14 16 17 16 15 14 14 15 17 23 26 27 27 28 29 29 28 26 24 24 25 25 23 22 22 22 22 21
6 6 6 6 6 6 7 6 6 7 7 7 8 8 7 8 9 11 11 10 9 10 12 12 13 13 13 14 14 15 14 13 12 12 12 14 17 20 21 22 22 21 22 23 23 22 21 22 20 21 22 22 22 21
6 6 6 6 7 7 7 6 6 7 7 8 8 8 7 8 9 11 11 10 10 11 11 12 12 12 12 13 14 14 14 13 12 12 12 12 13 16 18 20 20 20 20 19 18 18 18 19 19 20 22 22 22 22
6 6 6 7 7 8 7 7 7 8 8 8 8 8 7 8 10 11 11 9 9 11 12 11 11 11 11 12 13 14 14 14 13 12 12 12 12 13 15 16 17 18 18 18 18 18 17 16 17 19 20 20 19 19
Wind_Speed
87 96 105 111 114 122 128 134 137 143 139 141 143 141 141 137 142 137 122 114 109 93 85 76 66 58 53 44 37 30 24 18 14 10 9 10 11 15 26 31 36 44 51 57 64 62 64 65 65 65 63 62 63 61
97 104 110 112 121 127 132 138 133 143 138 139 137 139 140 138 138 126 116 109 103 89 81 73 62 57 48 39 33 27 21 17 11 9 9 10 12 17 27 33 34 42 46 56 66 65 64 65 65 63 63 61 60 58
102 105 113 120 126 130 134 136 138 137 136 136 137 137 133 133 134 120 111 105 97 86 78 68 58 53 43 36 31 25 19 14 9 7 7 9 12 19 28 35 36 42 49 65 69 65 64 65 65 63 62 59 58 53
107 112 117 123 128 128 133 139 134 136 132 131 136 132 132 132 125 114 109 102 93 83 75 63 56 49 40 34 29 23 17 13 8 5 5 9 14 19 28 34 39 47 57 71 70 68 67 65 61 58 58 57 53 49
111 116 123 129 132 133 135 131 138 134 128 132 136 128 130 128 117 109 105 100 90 80 73 60 54 45 37 33 26 20 15 10 6 3 4 8 15 21 28 36 44 52 65 72 69 65 63 61 60 56 55 53 50 48
115 122 128 132 130 133 133 134 137 132 130 136 127 127 126 116 109 104 102 98 85 77 69 57 51 42 35 30 24 17 13 9 5 1 4 10 17 24 30 38 49 56 67 72 68 63 61 59 57 56 54 52 49 48
119 127 127 131 132 139 137 135 138 131 131 133 125 124 120 112 105 100 99 92 81 73 66 53 47 38 33 28 23 16 11 8 4 4 7 11 18 25 33 42 52 59 67 70 66 62 60 60 58 57 55 52 50 49
125 130 133 130 135 135 133 139 131 127 131 130 122 117 117 105 100 99 97 86 76 69 61 50 43 35 31 26 19 13 9 7 5 5 8 13 19 27 34 41 51 61 68 68 64 61 58 57 59 57 55 52 51 49
128 131 128 135 136 128 137 134 125 129 132 125 120 116 105 99 97 96 91 79 70 65 55 45 39 32 28 23 17 11 7 6 5 6 9 14 21 28 33 40 50 61 67 66 61 56 59 60 59 57 55 53 52 49
131 132 131 133 127 133 133 127 127 130 127 123 114 106 98 96 94 91 83 72 65 61 47 41 35 29 24 21 16 11 7 4 4 6 10 15 21 27 32 40 51 63 66 63 60 59 60 57 57 57 55 54 53 50
129 130 130 128 130 131 127 127 127 122 127 119 109 101 95 93 92 84 75 64 59 53 41 37 32 25 23 18 13 10 6 4 3 7 10 16 20 26 31 41 54 64 65 64 60 57 56 57 55 55 55 54 54 53
133 129 127 126 126 132 127 124 129 125 114 110 100 94 92 91 88 77 67 57 53 46 38 33 29 23 19 16 10 8 4 3 4 7 10 17 22 26 33 46 58 66 66 63 57 49 49 53 56 55 55 55 54 53
125 124 124 126 131 127 124 127 128 119 110 100 94 91 90 90 80 70 59 51 48 41 35 30 26 20 15 12 8 5 4 1 5 9 10 19 25 30 39 48 59 65 64 62 59 54 52 52 54 53 53 55 54 54
129 127 127 130 128 124 125 124 123 112 102 95 92 91 88 85 72 62 53 47 44 37 32 27 23 17 12 10 5 2 3 3 7 11 15 21 27 34 45 53 60 63 64 61 57 56 55 53 54 56 55 54 54 53
127 126 127 126 123 123 122 123 112 101 97 92 89 89 87 75 66 55 48 45 41 33 29 24 20 13 10 9 5 3 3 4 10 14 17 23 25 35 45 55 60 65 63 59 58 55 52 50 51 54 56 54 52 53
124 128 124 122 124 122 125 113 102 95 92 90 89 87 81 69 59 49 44 42 37 29 26 22 17 11 7 9 8 5 6 7 10 14 19 25 28 32 42 51 59 62 64 61 59 56 54 52 50 51 54 53 53 55
126 122 119 120 119 125 114 102 95 91 87 87 87 85 74 63 52 44 40 39 33 25 23 20 15 8 6 9 12 9 9 9 11 13 19 25 30 31 37 48 55 59 62 62 61 58 54 53 53 52 52 53 55 57
118 115 119 121 122 115 101 96 92 88 86 88 85 77 68 56 47 41 38 37 31 23 20 17 14 8 5 10 12 12 12 13 13 15 20 22 25 29 33 39 46 54 58 62 62 62 59 57 56 58 58 57 56 58
117 119 121 122 111 100 95 91 88 86 86 85 80 70 61 52 43 38 35 34 28 21 19 16 13 10 7 11 15 15 16 18 17 16 20 20 23 25 30 34 39 46 51 57 61 62 63 63 63 63 63 63 63 62
119 119 123 109 99 95 91 88 85 85 84 82 72 64 57 49 40 35 33 32 26 20 17 15 13 12 11 12 17 20 20 21 23 22 23 24 24 24 27 31 34 36 40 47 52 58 62 64 65 66 67 68 69 69
114 119 110 100 95 90 87 85 85 83 82 74 64 59 52 45 37 32 29 29 24 19 16 15 14 13 14 15 18 23 25 25 26 27 27 26 25 26 27 28 30 33 36 39 41 44 50 56 60 63 66 68 71 72
119 110 99 94 90 87 85 84 83 81 75 65 58 53 46 40 35 30 28 27 23 19 16 16 15 15 16 17 19 22 26 28 28 29 29 30 30 30 31 32 32 33 34 37 40 42 45 47 51 54 58 62 65 68
105 97 92 89 87 84 83 83 82 75 65 58 53 47 41 37 32 28 26 25 21 19 18 17 16 17 17 18 21 23 26 28 30 32 32 33 33 34 34 35 35 36 37 37 38 40 43 45 48 51 53 56 59 62
94 90 86 85 84 83 82 79 72 64 57 51 47 42 37 33 30 27 25 25 21 19 19 18 18 18 18 20 22 24 27 29 31 32 34 35 35 35 36 37 36 36 36 37 38 39 40 42 43 45 47 49 51 52
87 84 83 83 83 80 75 69 62 57 51 46 41 38 34 31 27 26 25 24 21 19 19 19 19 20 20 21 22 24 27 29 31 33 35 35 36 37 36 35 34 34 34 35 37 39 41 42 44 45 47 48 48 47
82 82 82 81 77 71 66 60 55 50 46 41 36 34 32 29 25 24 24 23 20 19 19 19 20 20 21 22 24 24 26 29 31 33 34 35 35 35 35 33 32 34 35 36 38 39 41 43 45 45 44 43 41 39
81 81 77 71 65 61 57 53 48 44 40 36 33 32 30 27 24 23 23 22 20 19 19 20 20 21 22 23 24 26 27 28 30 31 32 33 33 32 31 31 32 33 35 36 38 40 43 43 40 38 37 37 35 32
77 71 66 61 57 54 50 46 42 38 35 33 31 30 28 24 22 22 22 22 20 19 18 19 20 21 22 23 24 25 27 29 29 30 30 30 30 31 32 34 35 35 36 36 37 37 37 38 38 37 34 31 30 31
69 64 58 54 51 48 44 41 37 35 32 30 29 28 25 22 21 21 22 20 19 19 18 18 19 20 22 23 24 25 26 27 28 28 27 27 28 30 31 30 29 29 32 35 37 38 38 35 33 34 33 31 30 30
61 55 50 47 45 41 39 37 33 31 29 28 27 26 22 20 20 21 21 20 19 18 18 18 19 19 21 22 23 24 24 25 26 28 29 29 28 29 29 30 32 33 35 36 35 33 32 32 31 30 29 29 28 28
52 48 44 42 39 36 34 32 29 28 27 26 25 23 21 19 19 20 20 19 18 18 18 18 19 20 21 22 22 23 23 23 25 26 26 27 27 27 27 28 30 31 31 31 31 30 28 29 28 26 26 26 26 26
44 41 38 36 33 31 30 28 26 25 25 23 22 21 19 18 19 19 18 17 17 17 18 18 19 19 20 21 21 22 22 22 23 23 23 24 26 27 27 27 27 27 28 29 28 28 27 27 25 25 25 24 24 25
40 37 34 31 29 27 25 24 23 22 21 20 20 20 19 18 18 17 16 15 15 15 16 17 17 18 18 18 19 20 21 22 22 23 23 23 23 25 26 26 25 24 25 24 24 25 25 24 24 24 25 25 25 25
Wind_Direction
306 310 311 316 317 320 326 324 325 325 325 326 329 329 330 329 329 331 332 334 335 335 335 336 335 336 335 334 332 327 324 322 311 288 263 235 215 194 188 193 193 187 183 182 179 186 188 191 195 198 198 200 202 205
307 310 313 315 316 322 324 323 327 326 326 328 330 329 329 328 330 333 333 334 336 336 337 337 338 337 336 336 332 334 329 323 319 291 253 227 199 177 181 187 189 189 182 181 179 184 186 191 194 197 198 199 200 202
308 311 313 316 319 321 323 326 326 326 329 327 330 329 330 328 331 333 332 335 338 337 338 338 339 338 338 337 336 332 329 327 320 286 249 223 194 174 179 185 180 184 180 180 179 183 185 191 193 195 197 199 200 199
309 311 314 316 318 321 324 322 325 328 327 329 330 329 331 330 333 333 333 337 339 338 339 339 341 341 341 340 337 335 339 333 319 289 244 208 187 177 178 186 177 176 176 181 180 180 185 189 191 195 197 199 198 196
309 311 315 316 318 318 323 323 328 326 329 329 331 331 331 333 333 334 334 338 338 338 339 340 342 342 343 340 335 339 342 336 338 317 218 196 177 179 179 181 176 177 177 181 181 179 183 184 189 191 196 196 194 195
308 312 314 315 318 320 322 323 325 327 328 330 329 331 332 334 333 335 335 338 337 337 339 340 342 343 344 341 342 346 353 352 359 87 174 177 174 178 179 177 173 177 179 180 179 178 179 183 185 189 192 193 191 195
311 312 313 316 319 318 321 326 325 326 327 331 330 332 333 333 333 336 335 337 335 336 339 340 341 342 345 342 345 348 358 359 34 109 146 167 173 177 178 176 175 178 179 179 175 175 179 181 182 186 189 189 189 194
310 312 313 316 316 319 321 324 324 326 327 330 330 331 333 333 333 336 335 337 333 335 338 338 340 342 346 345 347 351 358 4 39 105 148 167 173 176 178 177 178 180 177 178 174 176 178 179 181 186 189 189 188 193
310 313 314 313 317 316 321 323 325 328 329 330 329 330 332 332 334 336 335 334 332 334 336 336 338 343 346 342 342 356 7 17 50 113 152 166 171 174 179 178 178 178 177 176 172 174 180 180 181 185 188 191 189 193
310 312 313 314 317 317 320 324 324 328 330 328 328 331 331 333 334 335 333 333 331 334 333 334 337 342 343 341 343 356 16 28 77 122 151 164 169 173 179 177 176 177 179 175 173 179 183 180 182 186 188 193 192 192
309 310 313 314 316 316 321 323 325 329 327 327 328 329 332 333 333 333 332 331 331 333 332 332 335 339 339 338 344 356 15 59 118 138 149 163 167 171 174 174 175 178 181 180 178 184 182 182 183 187 189 194 197 195
307 311 311 314 313 317 320 324 328 326 325 326 327 330 332 333 334 333 330 329 331 331 329 329 332 335 336 331 335 342 4 77 126 134 147 151 161 168 171 172 175 179 185 184 182 184 183 185 186 190 192 195 201 201
305 310 309 311 311 318 322 325 324 326 324 326 328 331 332 333 333 332 329 329 330 329 325 325 327 330 332 330 325 326 330 105 134 139 154 151 157 165 168 173 178 181 188 188 183 187 187 189 188 192 197 200 203 207
309 311 307 312 314 318 324 323 326 323 324 327 330 332 333 333 331 330 327 328 329 324 321 321 323 325 324 312 312 286 285 146 157 150 152 149 159 166 170 174 179 185 191 191 187 190 192 192 193 196 201 204 206 209
307 307 310 313 316 320 322 324 321 323 325 328 330 330 332 332 330 328 325 326 327 320 316 316 318 321 315 296 295 267 228 185 161 158 153 150 159 171 176 178 183 187 192 194 195 195 194 193 198 203 207 210 211 213
303 307 311 315 317 320 321 320 322 323 326 329 330 331 331 330 328 326 323 324 324 316 312 309 311 317 299 277 252 229 222 201 181 168 163 156 161 170 180 186 187 191 195 198 202 199 199 198 201 206 212 215 217 220
304 308 312 315 319 318 319 320 322 324 328 328 329 329 329 328 326 324 321 321 321 312 307 304 305 303 259 255 239 224 214 207 191 186 175 169 165 174 179 187 193 196 198 202 205 209 206 206 207 210 213 217 222 225
306 311 314 316 317 318 318 320 322 325 327 328 328 327 328 327 325 323 319 319 317 308 303 296 292 283 236 241 233 222 215 212 208 195 184 183 177 173 180 187 193 199 203 206 209 212 214 213 215 217 219 222 225 228
311 313 314 317 316 318 318 320 323 325 326 327 326 325 326 325 323 320 316 316 312 302 297 288 279 266 228 217 227 222 218 216 213 210 201 197 195 183 185 187 192 199 203 207 210 214 217 220 222 224 226 227 229 230
310 314 316 315 317 317 318 321 323 325 325 325 324 324 324 322 320 317 313 312 307 295 289 279 268 253 236 209 223 232 226 217 216 217 210 207 205 207 200 196 196 196 201 207 212 215 218 221 224 226 229 231 234 234
311 314 313 316 315 316 319 321 322 323 324 323 322 321 320 319 316 314 310 309 303 291 283 272 257 246 237 225 216 225 229 228 224 222 220 218 215 208 210 211 209 209 209 208 210 216 220 223 226 229 232 235 237 238
311 311 314 314 315 317 319 320 320 321 321 320 318 319 316 316 314 311 308 307 298 287 278 270 256 247 239 230 223 222 227 229 230 228 228 226 223 222 219 217 218 220 217 218 220 221 222 223 225 228 231 234 237 239
310 312 312 314 315 317 317 318 318 318 318 316 315 315 314 313 311 308 304 302 292 280 275 268 257 247 242 234 228 228 227 230 233 234 236 235 233 231 231 230 229 228 228 228 229 229 231 233 234 236 238 240 241 243
310 310 312 314 315 315 316 315 316 315 315 313 311 311 312 311 308 302 298 298 289 274 268 265 259 250 242 237 232 229 230 232 234 237 238 240 242 242 241 241 241 241 240 241 243 245 245 246 246 247 248 249 250 252
309 311 313 313 314 314 314 314 314 314 312 310 309 310 310 307 301 296 293 294 285 273 265 261 257 252 246 240 237 234 232 233 235 238 241 243 244 245 247 248 250 250 249 249 251 252 253 255 255 255 256 258 260 262
311 312 312 313 313 313 312 312 312 310 308 308 307 308 307 302 296 291 289 290 282 270 264 260 256 251 247 244 240 237 235 235 235 237 240 243 246 248 250 250 251 253 254 255 255 256 257 257 257 256 258 262 265 267
311 312 313 312 312 311 311 311 309 307 307 307 306 304 302 297 291 288 286 286 278 266 260 255 253 249 247 246 244 242 240 239 238 239 241 242 244 245 247 247 247 248 247 248 249 250 251 253 257 260 261 261 263 263
313 313 313 311 310 310 310 309 308 307 306 306 303 301 298 292 287 285 284 284 275 266 259 255 252 249 247 245 244 244 244 244 243 242 242 243 243 242 241 241 242 243 245 246 247 251 253 253 253 256 258 258 257 257
315 314 313 311 310 309 308 308 308 306 305 303 300 299 295 287 285 284 285 279 271 267 261 255 252 251 248 246 245 245 246 246 245 246 246 244 244 244 245 246 247 244 242 241 242 247 252 255 254 253 255 254 252 250
314 314 312 310 310 308 308 307 305 302 301 300 298 296 291 285 284 285 284 277 270 266 262 258 254 253 252 250 247 246 247 248 246 244 243 242 242 242 242 241 239 241 243 245 249 250 250 252 251 249 248 247 248 248
315 314 313 311 309 307 306 304 301 300 299 297 296 294 288 284 283 283 283 276 270 268 264 261 258 256 256 252 249 248 248 248 247 245 243 243 243 242 243 241 241 242 245 247 248 249 247 246 247 247 246 244 244 244
316 315 314 311 309 306 303 300 298 297 297 296 297 295 288 283 282 283 281 272 268 267 268 264 259 257 255 251 250 250 251 250 249 248 245 244 243 243 244 245 245 244 243 245 247 247 247 246 243 241 240 241 241 240
317 316 314 311 307 303 299 298 296 295 296 295 297 296 287 282 281 284 282 271 266 266 266 264 259 256 253 251 249 248 248 248 250 251 250 248 245 242 241 243 243 242 242 242 243 243 242 241 239 239 239 239 238 237